Regional Weather Roundup
Issued by NWS

Home | Current Version | Previous Version | Graphics & Text | Print | Product List | Glossary On
Versions: 1 2 3 4 5 6 7 8 9 10 11 12 13 14 15 16 17 18 19 20 21 22 23 24 25 26 27 28 29 30 31 32 33 34 35 36 37 38 39 40 41 42 43 44 45 46 47 48 49 50
307
ASUS45 KCYS 281710
RWRWY

WYOMING REGIONAL WEATHER ROUNDUP
NATIONAL WEATHER SERVICE CHEYENNE WY
1100 AM MDT WED SEP 28 2016

NOTE:  "FAIR" INDICATES FEW OR NO CLOUDS BELOW 12,000 FEET
WITH NO SIGNIFICANT WEATHER AND/OR OBSTRUCTIONS TO VISIBILITY.

WYZ001-281800-
YELLOWSTONE NATIONAL PARK

CITY           SKY/WX    TMP DP  RH WIND       PRES   REMARKS
LK YELLOWSTONE   N/A     55  42  61 CALM      30.44S
W YELLOWSTONE  NOT AVBL

$$
WYZ002>013-054>058-071-098>099-281800-
NORTHERN WYOMING

CITY           SKY/WX    TMP DP  RH WIND       PRES   REMARKS
JACKSON        SUNNY     55  37  50 SE6       30.37F
CODY           FAIR      60  46  59 NE8       30.33F
GREYBULL       FAIR      61  50  67 N3        30.28F
WORLAND        FAIR      63  47  55 NE5       30.28S
SHERIDAN       FAIR      67  48  50 VRB3      30.30S
BUFFALO        FAIR      73  41  31 S9        30.35S
GILLETTE       FAIR      73  45  36 VRB5      30.31S
HULETT         FAIR      70  43  37 N6        30.32S
NEWCASTLE      FAIR      66  39  37 CALM      30.32S

$$
WYZ014>020-022>026-101>103-281800-
CENTRAL WYOMING

CITY           SKY/WX    TMP DP  RH WIND       PRES   REMARKS
BIG PINEY      FAIR      59  34  39 CALM      30.42S
PINEDALE       FAIR      63  32  31 E3        30.42F
DUBOIS         FAIR      59  36  41 E3        30.42F
LANDER         FAIR      65  39  38 CALM      30.35S
RIVERTON       FAIR      61  47  59 VRB5      30.35F
CASPER         FAIR      65  41  41 VRB3      30.36S
DOUGLAS        FAIR      68  41  37 CALM      30.35F

$$
WYZ021-027>030-104>119-281800-
SOUTHERN WYOMING

CITY           SKY/WX    TMP DP  RH WIND       PRES   REMARKS
EVANSTON       FAIR      62  37  39 E8        30.37S
FORT BRIDGER   FAIR      58  39  49 NE5       30.41S
ROCK SPRINGS   FAIR      62  40  44 VRB3      30.39S
DIXON          FAIR      64  35  34 CALM      30.38F
RAWLINS        FAIR      61  32  33 VRB6      30.41S
SARATOGA       FAIR      63  34  34 NW5       30.40F
LARAMIE        FAIR      65  33  30 CALM      30.43F
CHEYENNE       FAIR      70  36  28 E8        30.40S
TORRINGTON     FAIR      70  42  36 SW6       30.31S
PINE BLUFFS    FAIR      72  36  26 E8        30.36S

$$




USA.gov is the U.S. government's official web portal to all federal, state and local government web resources and services.